ATLAS 5 CENTAUR DEB, 43962

Orbit data source: Space-Track

ATLAS 5 CENTAUR DEB, 43962 is space debris in HEO originally from a launch on Wed, 17 Sep 2014 UTC launched from the Air Force Eastern Test Range (AFETR). Debris objects in space refer to the collection of defunct objects orbiting the Earth. Examples of debris include non-operational satellites, rocket bodies, and fragments generated from explosions, collisions, or faulty payload assembly.

Loading next visibility...
Identifier
43962, 2014-055R
Orbit
HEO
Country
Flag of USUS
Related business
Flag of USUnited Launch Alliance/Lockheed Martin (US)
Manufacturer
Unknown
Mission
Spacecraft
Bus & Motor
Unknown
Mass
Unknown
Launch date (UTC)
2014-09-17 (11 years ago)
Launch vehicle
Unknown
Launch site
Air Force Eastern Test Range (AFETR)
Object type
Payload
Rocket body
Debris
Shape & HBR
Unknown shape, 1.1 m
Radar Cross Section
Small (<0.1 m²)

Expand to show TLE details & history
Last TLE update: 16 hours ago

TLE from 16 hours ago
0 ATLAS 5 CENTAUR DEB
1 43962U 14055R   26061.64049531 -.00000139  00000-0  00000+0 0  9999
2 43962  20.7838 122.9553 4994327 205.6117 117.5883  1.90750781 52278
Epoch: 2026-03-02T15:22Z
TLE epoch observation values (Epoch: 2026-03-02T15:22:18.794Z)
Latitude
0.00005°
Longitude
92.0209°
Altitude
31,141.098 km
Speed
2.595 km/s
True Right ascension
08h 12m 07s
True Declination
0° 00' 00"
Sunlit
Object was in daylight at epoch
Visualization orbit readout
Latitude
Unknown
Longitude
Unknown
Altitude
Unknown
Speed
Unknown
Apparent Right ascension
Unknown
Apparent Declination
Unknown
Sunlit
N/A
Visualization observer readout
Local Sidereal Time
11:35:18
Azimuth
Unknown
Elevation
Unknown
Doppler factor
Unknown
Orbital elements
Apogee altitude
34,804.723 km
Perigee altitude
7,370.258 km
Semi-major axis
27,465.627 km
Eccentricity
0.49943
Inclination
20.7838°
RAAN
122.9553°
Arg. of periapsis
205.6117°
True anomaly
154.40451°
Mean anomaly
117.5883°
Eccentric anomaly
137.07612°
Mean motion
0.47682 °/min
Orbital period
754.99 mins
BSTAR
0
Loading maneuver chart data...
Computing Atmospheric mass density...

Documentation

Showing up to 5 results
|